Year,Month,Day,Hour,Minute,Value (Times are PST for temperature in C)
2014,04,12,00,00,9.00
2014,04,12,00,01,8.90
2014,04,12,00,02,8.80
2014,04,12,00,03,8.80
2014,04,12,00,04,8.80
2014,04,12,00,05,8.80
2014,04,12,00,06,8.80
2014,04,12,00,07,8.80
2014,04,12,00,08,8.70
2014,04,12,00,09,8.70
2014,04,12,00,10,8.70
2014,04,12,00,11,8.70
2014,04,12,00,12,8.70
2014,04,12,00,13,8.60
2014,04,12,00,14,8.60
2014,04,12,00,15,8.60
2014,04,12,00,16,8.50
2014,04,12,00,17,8.50
2014,04,12,00,18,8.40
2014,04,12,00,19,8.40
2014,04,12,00,20,8.40
2014,04,12,00,21,8.40
2014,04,12,00,22,8.50
2014,04,12,00,23,8.60
2014,04,12,00,24,8.60
2014,04,12,00,25,8.70
2014,04,12,00,26,8.70
2014,04,12,00,27,8.70
2014,04,12,00,28,8.80
2014,04,12,00,29,8.80
2014,04,12,00,30,8.90
2014,04,12,00,31,8.90
2014,04,12,00,32,8.90
2014,04,12,00,33,8.90
2014,04,12,00,34,8.90
2014,04,12,00,35,8.90
2014,04,12,00,36,8.90
2014,04,12,00,37,8.90
2014,04,12,00,38,8.90
2014,04,12,00,39,8.90
2014,04,12,00,40,8.90
2014,04,12,00,41,8.90
2014,04,12,00,42,8.90
2014,04,12,00,43,8.90
2014,04,12,00,44,9.00
2014,04,12,00,45,9.00
2014,04,12,00,46,9.00
2014,04,12,00,47,9.10
2014,04,12,00,48,9.10
2014,04,12,00,49,9.20
2014,04,12,00,50,9.20
2014,04,12,00,51,9.30
2014,04,12,00,52,9.30
2014,04,12,00,53,9.40
2014,04,12,00,54,9.40
2014,04,12,00,55,9.50
2014,04,12,00,56,9.60
2014,04,12,00,57,9.60
2014,04,12,00,58,9.70
2014,04,12,00,59,9.70
2014,04,12,01,00,9.70
2014,04,12,01,01,9.80
2014,04,12,01,02,9.80
2014,04,12,01,03,9.80
2014,04,12,01,04,9.80
2014,04,12,01,05,9.80
2014,04,12,01,06,9.80
2014,04,12,01,07,9.80
2014,04,12,01,08,9.90
2014,04,12,01,09,9.90
2014,04,12,01,10,9.90
2014,04,12,01,11,9.90
2014,04,12,01,12,9.90
2014,04,12,01,13,9.90
2014,04,12,01,14,9.90
2014,04,12,01,15,9.80
2014,04,12,01,16,9.80
2014,04,12,01,17,9.80
2014,04,12,01,18,9.80
2014,04,12,01,19,9.80
2014,04,12,01,20,9.80
2014,04,12,01,21,9.80
2014,04,12,01,22,9.70
2014,04,12,01,23,9.70
2014,04,12,01,24,9.70
2014,04,12,01,25,9.70
2014,04,12,01,26,9.70
2014,04,12,01,27,9.70
2014,04,12,01,28,9.60
2014,04,12,01,29,9.60
2014,04,12,01,30,9.60
2014,04,12,01,31,9.60
2014,04,12,01,32,9.50
2014,04,12,01,33,9.50
2014,04,12,01,34,9.50
2014,04,12,01,35,9.50
2014,04,12,01,36,9.50
2014,04,12,01,37,9.40
2014,04,12,01,38,9.40
2014,04,12,01,39,9.40
2014,04,12,01,40,9.40
2014,04,12,01,41,9.40
2014,04,12,01,42,9.30
2014,04,12,01,43,9.30
2014,04,12,01,44,9.30
2014,04,12,01,45,9.30
2014,04,12,01,46,9.30
2014,04,12,01,47,9.30
2014,04,12,01,48,9.30
2014,04,12,01,49,9.30
2014,04,12,01,50,9.30
2014,04,12,01,51,9.20
2014,04,12,01,52,9.20
2014,04,12,01,53,9.20
2014,04,12,01,54,9.20
2014,04,12,01,55,9.20
2014,04,12,01,56,9.20
2014,04,12,01,57,9.20
2014,04,12,01,58,9.20
2014,04,12,01,59,9.20
2014,04,12,02,00,9.10
2014,04,12,02,01,9.10
2014,04,12,02,02,9.10
2014,04,12,02,03,9.10
2014,04,12,02,04,9.10
2014,04,12,02,05,9.10
2014,04,12,02,06,9.10
2014,04,12,02,07,9.10
2014,04,12,02,08,9.10
2014,04,12,02,09,9.10
2014,04,12,02,10,9.00
2014,04,12,02,11,9.00
2014,04,12,02,12,9.00
2014,04,12,02,13,9.00
2014,04,12,02,14,8.90
2014,04,12,02,15,8.90
2014,04,12,02,16,8.90
2014,04,12,02,17,8.90
2014,04,12,02,18,8.90
2014,04,12,02,19,8.90
2014,04,12,02,20,8.90
2014,04,12,02,21,8.80
2014,04,12,02,22,8.80
2014,04,12,02,23,8.80
2014,04,12,02,24,8.80
2014,04,12,02,25,8.80
2014,04,12,02,26,8.80
2014,04,12,02,27,8.80
2014,04,12,02,28,8.80
2014,04,12,02,29,8.80
2014,04,12,02,30,8.80
2014,04,12,02,31,8.70
2014,04,12,02,32,8.70
2014,04,12,02,33,8.70
2014,04,12,02,34,8.70
2014,04,12,02,35,8.60
2014,04,12,02,36,8.60
2014,04,12,02,37,8.50
2014,04,12,02,38,8.50
2014,04,12,02,39,8.40
2014,04,12,02,40,8.40
2014,04,12,02,41,8.30
2014,04,12,02,42,8.30
2014,04,12,02,43,8.30
2014,04,12,02,44,8.20
2014,04,12,02,45,8.20
2014,04,12,02,46,8.20
2014,04,12,02,47,8.10
2014,04,12,02,48,8.10
2014,04,12,02,49,8.10
2014,04,12,02,50,8.10
2014,04,12,02,51,8.10
2014,04,12,02,52,8.10
2014,04,12,02,53,8.10
2014,04,12,02,54,8.10
2014,04,12,02,55,8.10
2014,04,12,02,56,8.10
2014,04,12,02,57,8.10
2014,04,12,02,58,8.10
2014,04,12,02,59,8.10
2014,04,12,03,00,8.00
2014,04,12,03,01,8.00
2014,04,12,03,02,7.90
2014,04,12,03,03,7.80
2014,04,12,03,04,7.70
2014,04,12,03,05,7.70
2014,04,12,03,06,7.60
2014,04,12,03,07,7.60
2014,04,12,03,08,7.50
2014,04,12,03,09,7.50
2014,04,12,03,10,7.50
2014,04,12,03,11,7.60
2014,04,12,03,12,7.60
2014,04,12,03,13,7.60
2014,04,12,03,14,7.50
2014,04,12,03,15,7.50
2014,04,12,03,16,7.50
2014,04,12,03,17,7.50
2014,04,12,03,18,7.50
2014,04,12,03,19,7.60
2014,04,12,03,20,7.60
2014,04,12,03,21,7.70
2014,04,12,03,22,7.70
2014,04,12,03,23,7.80
2014,04,12,03,24,7.80
2014,04,12,03,25,7.80
2014,04,12,03,26,7.80
2014,04,12,03,27,7.90
2014,04,12,03,28,7.90
2014,04,12,03,29,7.90
2014,04,12,03,30,7.80
2014,04,12,03,31,7.80
2014,04,12,03,32,7.80
2014,04,12,03,33,7.80
2014,04,12,03,34,7.80
2014,04,12,03,35,7.80
2014,04,12,03,36,7.80
2014,04,12,03,37,7.90
2014,04,12,03,38,7.90
2014,04,12,03,39,7.90
2014,04,12,03,40,7.90
2014,04,12,03,41,8.00
2014,04,12,03,42,8.00
2014,04,12,03,43,8.00
2014,04,12,03,44,8.10
2014,04,12,03,45,8.10
2014,04,12,03,46,8.10
2014,04,12,03,47,8.10
2014,04,12,03,48,8.10
2014,04,12,03,49,8.00
2014,04,12,03,50,8.00
2014,04,12,03,51,7.90
2014,04,12,03,52,7.90
2014,04,12,03,53,7.90
2014,04,12,03,54,7.80
2014,04,12,03,55,7.80
2014,04,12,03,56,7.70
2014,04,12,03,57,7.60
2014,04,12,03,58,7.50
2014,04,12,03,59,7.40
2014,04,12,04,00,7.40
2014,04,12,04,01,7.30
2014,04,12,04,02,7.20
2014,04,12,04,03,7.10
2014,04,12,04,04,7.10
2014,04,12,04,05,7.10
2014,04,12,04,06,7.10
2014,04,12,04,07,7.10
2014,04,12,04,08,7.10
2014,04,12,04,09,7.10
2014,04,12,04,10,7.20
2014,04,12,04,11,7.30
2014,04,12,04,12,7.30
2014,04,12,04,13,7.40
2014,04,12,04,14,7.50
2014,04,12,04,15,7.50
2014,04,12,04,16,7.50
2014,04,12,04,17,7.60
2014,04,12,04,18,7.60
2014,04,12,04,19,7.60
2014,04,12,04,20,7.60
2014,04,12,04,21,7.70
2014,04,12,04,22,7.70
2014,04,12,04,23,7.70
2014,04,12,04,24,7.70
2014,04,12,04,25,7.70
2014,04,12,04,26,7.70
2014,04,12,04,27,7.70
2014,04,12,04,28,7.70
2014,04,12,04,29,7.60
2014,04,12,04,30,7.60
2014,04,12,04,31,7.60
2014,04,12,04,32,7.60
2014,04,12,04,33,7.60
2014,04,12,04,34,7.50
2014,04,12,04,35,7.40
2014,04,12,04,36,7.40
2014,04,12,04,37,7.30
2014,04,12,04,38,7.30
2014,04,12,04,39,7.20
2014,04,12,04,40,7.20
2014,04,12,04,41,7.20
2014,04,12,04,42,7.10
2014,04,12,04,43,7.10
2014,04,12,04,44,7.10
2014,04,12,04,45,7.10
2014,04,12,04,46,7.10
2014,04,12,04,47,7.10
2014,04,12,04,48,7.10
2014,04,12,04,49,7.10
2014,04,12,04,50,7.00
2014,04,12,04,51,7.00
2014,04,12,04,52,6.90
2014,04,12,04,53,6.90
2014,04,12,04,54,6.80
2014,04,12,04,55,6.80
2014,04,12,04,56,6.80
2014,04,12,04,57,6.80
2014,04,12,04,58,6.80
2014,04,12,04,59,6.80
2014,04,12,05,00,6.80
2014,04,12,05,01,6.70
2014,04,12,05,02,6.80
2014,04,12,05,03,6.80
2014,04,12,05,04,6.80
2014,04,12,05,05,6.80
2014,04,12,05,06,6.80
2014,04,12,05,07,6.80
2014,04,12,05,08,6.80
2014,04,12,05,09,6.80
2014,04,12,05,10,6.80
2014,04,12,05,11,6.80
2014,04,12,05,12,6.70
2014,04,12,05,13,6.60
2014,04,12,05,14,6.50
2014,04,12,05,15,6.40
2014,04,12,05,16,6.20
2014,04,12,05,17,6.00
2014,04,12,05,18,5.90
2014,04,12,05,19,5.80
2014,04,12,05,20,5.60
2014,04,12,05,21,5.50
2014,04,12,05,22,5.50
2014,04,12,05,23,5.40
2014,04,12,05,24,5.30
2014,04,12,05,25,5.30
2014,04,12,05,26,5.30
2014,04,12,05,27,5.30
2014,04,12,05,28,5.30
2014,04,12,05,29,5.40
2014,04,12,05,30,5.50
2014,04,12,05,31,5.50
2014,04,12,05,32,5.60
2014,04,12,05,33,5.60
2014,04,12,05,34,5.60
2014,04,12,05,35,5.60
2014,04,12,05,36,5.50
2014,04,12,05,37,5.50
2014,04,12,05,38,5.40
2014,04,12,05,39,5.40
2014,04,12,05,40,5.40
2014,04,12,05,41,5.20
2014,04,12,05,42,5.20
2014,04,12,05,43,5.10
2014,04,12,05,44,5.00
2014,04,12,05,45,4.90
2014,04,12,05,46,4.90
2014,04,12,05,47,4.80
2014,04,12,05,48,4.70
2014,04,12,05,49,4.70
2014,04,12,05,50,4.60
2014,04,12,05,51,4.60
2014,04,12,05,52,4.50
2014,04,12,05,53,4.50
2014,04,12,05,54,4.40
2014,04,12,05,55,4.40
2014,04,12,05,56,4.40
2014,04,12,05,57,4.30
2014,04,12,05,58,4.30
2014,04,12,05,59,4.20
2014,04,12,06,00,4.20
2014,04,12,06,01,4.10
2014,04,12,06,02,4.10
2014,04,12,06,03,4.10
2014,04,12,06,04,4.10
2014,04,12,06,05,4.00
2014,04,12,06,06,4.00
2014,04,12,06,07,4.00
2014,04,12,06,08,3.90
2014,04,12,06,09,3.90
2014,04,12,06,10,3.90
2014,04,12,06,11,3.90
2014,04,12,06,12,3.90
2014,04,12,06,13,3.90
2014,04,12,06,14,3.90
2014,04,12,06,15,3.80
2014,04,12,06,16,3.80
2014,04,12,06,17,3.80
2014,04,12,06,18,3.80
2014,04,12,06,19,3.80
2014,04,12,06,20,3.90
2014,04,12,06,21,4.00
2014,04,12,06,22,4.00
2014,04,12,06,23,4.00
2014,04,12,06,24,4.10
2014,04,12,06,25,4.10
2014,04,12,06,26,4.00
2014,04,12,06,27,4.00
2014,04,12,06,28,4.00
2014,04,12,06,29,4.00
2014,04,12,06,30,4.00
2014,04,12,06,31,4.10
2014,04,12,06,32,4.10
2014,04,12,06,33,4.10
2014,04,12,06,34,4.20
2014,04,12,06,35,4.30
2014,04,12,06,36,4.30
2014,04,12,06,37,4.30
2014,04,12,06,38,4.30
2014,04,12,06,39,4.40
2014,04,12,06,40,4.30
2014,04,12,06,41,4.30
2014,04,12,06,42,4.20
2014,04,12,06,43,4.20
2014,04,12,06,44,4.20
2014,04,12,06,45,4.10
2014,04,12,06,46,4.10
2014,04,12,06,47,4.10
2014,04,12,06,48,4.20
2014,04,12,06,49,4.20
2014,04,12,06,50,4.30
2014,04,12,06,51,4.30
2014,04,12,06,52,4.30
2014,04,12,06,53,4.40
2014,04,12,06,54,4.40
2014,04,12,06,55,4.30
2014,04,12,06,56,4.30
2014,04,12,06,57,4.30
2014,04,12,06,58,4.30
2014,04,12,06,59,4.30
2014,04,12,07,00,4.30
2014,04,12,07,01,4.30
2014,04,12,07,02,4.40
2014,04,12,07,03,4.40
2014,04,12,07,04,4.40
2014,04,12,07,05,4.40
2014,04,12,07,06,4.40
2014,04,12,07,07,4.40
2014,04,12,07,08,4.30
2014,04,12,07,09,4.40
2014,04,12,07,10,4.40
2014,04,12,07,11,4.50
2014,04,12,07,12,4.60
2014,04,12,07,13,4.70
2014,04,12,07,14,4.80
2014,04,12,07,15,4.80
2014,04,12,07,16,4.90
2014,04,12,07,17,5.00
2014,04,12,07,18,4.90
2014,04,12,07,19,4.90
2014,04,12,07,20,4.80
2014,04,12,07,21,4.80
2014,04,12,07,22,4.80
2014,04,12,07,23,4.70
2014,04,12,07,24,4.80
2014,04,12,07,25,4.80
2014,04,12,07,26,4.80
2014,04,12,07,27,4.80
2014,04,12,07,28,4.90
2014,04,12,07,29,5.00
2014,04,12,07,30,5.10
2014,04,12,07,31,5.30
2014,04,12,07,32,5.40
2014,04,12,07,33,5.50
2014,04,12,07,34,5.60
2014,04,12,07,35,5.70
2014,04,12,07,36,5.80
2014,04,12,07,37,5.90
2014,04,12,07,38,5.90
2014,04,12,07,39,6.00
2014,04,12,07,40,6.10
2014,04,12,07,41,6.10
2014,04,12,07,42,6.10
2014,04,12,07,43,6.10
2014,04,12,07,44,6.20
2014,04,12,07,45,6.20
2014,04,12,07,46,6.30
2014,04,12,07,47,6.30
2014,04,12,07,48,6.40
2014,04,12,07,49,6.50
2014,04,12,07,50,6.50
2014,04,12,07,51,6.60
2014,04,12,07,52,6.60
2014,04,12,07,53,6.70
2014,04,12,07,54,6.70
2014,04,12,07,55,6.70
2014,04,12,07,56,6.80
2014,04,12,07,57,6.80
2014,04,12,07,58,6.80
2014,04,12,07,59,6.90
2014,04,12,08,00,6.90
2014,04,12,08,01,6.90
2014,04,12,08,02,7.00
2014,04,12,08,03,7.00
2014,04,12,08,04,7.10
2014,04,12,08,05,7.10
2014,04,12,08,06,7.20
2014,04,12,08,07,7.20
2014,04,12,08,08,7.30
2014,04,12,08,09,7.40
2014,04,12,08,10,7.50
2014,04,12,08,11,7.50
2014,04,12,08,12,7.60
2014,04,12,08,13,7.60
2014,04,12,08,14,7.70
2014,04,12,08,15,7.80
2014,04,12,08,16,7.80
2014,04,12,08,17,7.80
2014,04,12,08,18,7.90
2014,04,12,08,19,7.90
2014,04,12,08,20,7.90
2014,04,12,08,21,8.00
2014,04,12,08,22,8.00
2014,04,12,08,23,8.10
2014,04,12,08,24,8.10
2014,04,12,08,25,8.20
2014,04,12,08,26,8.20
2014,04,12,08,27,8.20
2014,04,12,08,28,8.30
2014,04,12,08,29,8.30
2014,04,12,08,30,8.30
2014,04,12,08,31,8.40
2014,04,12,08,32,8.40
2014,04,12,08,33,8.50
2014,04,12,08,34,8.50
2014,04,12,08,35,8.60
2014,04,12,08,36,8.60
2014,04,12,08,37,8.60
2014,04,12,08,38,8.70
2014,04,12,08,39,8.70
2014,04,12,08,40,8.70
2014,04,12,08,41,8.70
2014,04,12,08,42,8.70
2014,04,12,08,43,8.70
2014,04,12,08,44,8.70
2014,04,12,08,45,8.70
2014,04,12,08,46,8.70
2014,04,12,08,47,8.70
2014,04,12,08,48,8.80
2014,04,12,08,49,8.80
2014,04,12,08,50,8.80
2014,04,12,08,51,8.80
2014,04,12,08,52,8.80
2014,04,12,08,53,8.80
2014,04,12,08,54,8.90
2014,04,12,08,55,8.90
2014,04,12,08,56,8.90
2014,04,12,08,57,8.90
2014,04,12,08,58,8.80
2014,04,12,08,59,8.80
2014,04,12,09,00,8.80
2014,04,12,09,01,8.80
2014,04,12,09,02,8.90
2014,04,12,09,03,8.90
2014,04,12,09,04,8.90
2014,04,12,09,05,9.00
2014,04,12,09,06,9.00
2014,04,12,09,07,9.00
2014,04,12,09,08,9.00
2014,04,12,09,09,9.00
2014,04,12,09,10,9.00
2014,04,12,09,11,9.10
2014,04,12,09,12,9.10
2014,04,12,09,13,9.10
2014,04,12,09,14,9.10
2014,04,12,09,15,9.10
2014,04,12,09,16,9.10
2014,04,12,09,17,9.10
2014,04,12,09,18,9.00
2014,04,12,09,19,9.00
2014,04,12,09,20,9.00
2014,04,12,09,21,9.10
2014,04,12,09,22,9.10
2014,04,12,09,23,9.10
2014,04,12,09,24,9.20
2014,04,12,09,25,9.10
2014,04,12,09,26,9.10
2014,04,12,09,27,9.10
2014,04,12,09,28,9.10
2014,04,12,09,29,9.10
2014,04,12,09,30,9.10
2014,04,12,09,31,9.00
2014,04,12,09,32,9.00
2014,04,12,09,33,9.00
2014,04,12,09,34,9.00
2014,04,12,09,35,9.00
2014,04,12,09,36,9.00
2014,04,12,09,37,9.10
2014,04,12,09,38,9.10
2014,04,12,09,39,9.20
2014,04,12,09,40,9.20
2014,04,12,09,41,9.20
2014,04,12,09,42,9.20
2014,04,12,09,43,9.20
2014,04,12,09,44,9.20
2014,04,12,09,45,9.20
2014,04,12,09,46,9.20
2014,04,12,09,47,9.20
2014,04,12,09,48,9.20
2014,04,12,09,49,9.30
2014,04,12,09,50,9.30
2014,04,12,09,51,9.30
2014,04,12,09,52,9.40
2014,04,12,09,53,9.50
2014,04,12,09,54,9.50
2014,04,12,09,55,9.40
2014,04,12,09,56,9.40
2014,04,12,09,57,9.30
2014,04,12,09,58,9.20
2014,04,12,09,59,9.10
2014,04,12,10,00,9.10
2014,04,12,10,01,9.10
2014,04,12,10,02,9.10
2014,04,12,10,03,9.20
2014,04,12,10,04,9.20
2014,04,12,10,05,9.20
2014,04,12,10,06,9.20
2014,04,12,10,07,9.20
2014,04,12,10,08,9.20
2014,04,12,10,09,9.30
2014,04,12,10,10,9.30
2014,04,12,10,11,9.40
2014,04,12,10,12,9.40
2014,04,12,10,13,9.40
2014,04,12,10,14,9.50
2014,04,12,10,15,9.50
2014,04,12,10,16,9.50
2014,04,12,10,17,9.50
2014,04,12,10,18,9.40
2014,04,12,10,19,9.30
2014,04,12,10,20,9.30
2014,04,12,10,21,9.30
2014,04,12,10,22,9.30
2014,04,12,10,23,9.30
2014,04,12,10,24,9.40
2014,04,12,10,25,9.40
2014,04,12,10,26,9.40
2014,04,12,10,27,9.40
2014,04,12,10,28,9.40
2014,04,12,10,29,9.30
2014,04,12,10,30,9.30
2014,04,12,10,31,9.30
2014,04,12,10,32,9.30
2014,04,12,10,33,9.30
2014,04,12,10,34,9.30
2014,04,12,10,35,9.40
2014,04,12,10,36,9.40
2014,04,12,10,37,9.50
2014,04,12,10,38,9.50
2014,04,12,10,39,9.60
2014,04,12,10,40,9.60
2014,04,12,10,41,9.60
2014,04,12,10,42,9.60
2014,04,12,10,43,9.70
2014,04,12,10,44,9.80
2014,04,12,10,45,9.90
2014,04,12,10,46,9.90
2014,04,12,10,47,10.00
2014,04,12,10,48,10.00
2014,04,12,10,49,10.00
2014,04,12,10,50,9.90
2014,04,12,10,51,9.90
2014,04,12,10,52,9.90
2014,04,12,10,53,9.80
2014,04,12,10,54,9.80
2014,04,12,10,55,9.70
2014,04,12,10,56,9.70
2014,04,12,10,57,9.70
2014,04,12,10,58,9.80
2014,04,12,10,59,9.80
2014,04,12,11,00,9.90
2014,04,12,11,01,9.90
2014,04,12,11,02,10.00
2014,04,12,11,03,9.90
2014,04,12,11,04,9.90
2014,04,12,11,05,9.90
2014,04,12,11,06,9.80
2014,04,12,11,07,9.80
2014,04,12,11,08,9.80
2014,04,12,11,09,9.80
2014,04,12,11,10,9.70
2014,04,12,11,11,9.70
2014,04,12,11,12,9.60
2014,04,12,11,13,9.70
2014,04,12,11,14,9.70
2014,04,12,11,15,9.80
2014,04,12,11,16,9.90
2014,04,12,11,17,9.90
2014,04,12,11,18,9.90
2014,04,12,11,19,9.80
2014,04,12,11,20,9.80
2014,04,12,11,21,9.70
2014,04,12,11,22,9.60
2014,04,12,11,23,9.50
2014,04,12,11,24,9.40
2014,04,12,11,25,9.50
2014,04,12,11,26,9.50
2014,04,12,11,27,9.50
2014,04,12,11,28,9.60
2014,04,12,11,29,9.60
2014,04,12,11,30,9.60
2014,04,12,11,31,9.50
2014,04,12,11,32,9.40
2014,04,12,11,33,9.40
2014,04,12,11,34,9.40
2014,04,12,11,35,9.40
2014,04,12,11,36,9.50
2014,04,12,11,37,9.60
2014,04,12,11,38,9.70
2014,04,12,11,39,9.70
2014,04,12,11,40,9.70
2014,04,12,11,41,9.60
2014,04,12,11,42,9.60
2014,04,12,11,43,9.70
2014,04,12,11,44,9.70
2014,04,12,11,45,9.70
2014,04,12,11,46,9.70
2014,04,12,11,47,9.70
2014,04,12,11,48,9.70
2014,04,12,11,49,9.60
2014,04,12,11,50,9.60
2014,04,12,11,51,9.70
2014,04,12,11,52,9.70
2014,04,12,11,53,9.80
2014,04,12,11,54,9.80
2014,04,12,11,55,9.90
2014,04,12,11,56,9.80
2014,04,12,11,57,9.90
2014,04,12,11,58,9.90
2014,04,12,11,59,9.90
2014,04,12,12,00,9.80
2014,04,12,12,01,9.80
2014,04,12,12,02,9.80
2014,04,12,12,03,9.70
2014,04,12,12,04,9.60
2014,04,12,12,05,9.60
2014,04,12,12,06,9.60
2014,04,12,12,07,9.60
2014,04,12,12,08,9.60
2014,04,12,12,09,9.70
2014,04,12,12,10,9.60
2014,04,12,12,11,9.60
2014,04,12,12,12,9.60
2014,04,12,12,13,9.60
2014,04,12,12,14,9.60
2014,04,12,12,15,9.60
2014,04,12,12,16,9.60
2014,04,12,12,17,9.70
2014,04,12,12,18,9.70
2014,04,12,12,19,9.70
2014,04,12,12,20,9.80
2014,04,12,12,21,9.90
2014,04,12,12,22,9.90
2014,04,12,12,23,9.80
2014,04,12,12,24,9.90
2014,04,12,12,25,9.90
2014,04,12,12,26,9.90
2014,04,12,12,27,10.00
2014,04,12,12,28,10.00
2014,04,12,12,29,10.10
2014,04,12,12,30,10.10
2014,04,12,12,31,10.20
2014,04,12,12,32,10.20
2014,04,12,12,33,10.30
2014,04,12,12,34,10.30
2014,04,12,12,35,10.40
2014,04,12,12,36,10.40
2014,04,12,12,37,10.40
2014,04,12,12,38,10.30
2014,04,12,12,39,10.20
2014,04,12,12,40,10.20
2014,04,12,12,41,10.20
2014,04,12,12,42,10.20
2014,04,12,12,43,10.20
2014,04,12,12,44,10.20
2014,04,12,12,45,10.20
2014,04,12,12,46,10.30
2014,04,12,12,47,10.30
2014,04,12,12,48,10.30
2014,04,12,12,49,10.30
2014,04,12,12,50,10.30
2014,04,12,12,51,10.30
2014,04,12,12,52,10.30
2014,04,12,12,53,10.30
2014,04,12,12,54,10.30
2014,04,12,12,55,10.30
2014,04,12,12,56,10.20
2014,04,12,12,57,10.30
2014,04,12,12,58,10.30
2014,04,12,12,59,10.30
2014,04,12,13,00,10.30
2014,04,12,13,01,10.30
2014,04,12,13,02,10.30
2014,04,12,13,03,10.30
2014,04,12,13,04,10.40
2014,04,12,13,05,10.40
2014,04,12,13,06,10.50
2014,04,12,13,07,10.50
2014,04,12,13,08,10.50
2014,04,12,13,09,10.60
2014,04,12,13,10,10.60
2014,04,12,13,11,10.70
2014,04,12,13,12,10.70
2014,04,12,13,13,10.70
2014,04,12,13,14,10.70
2014,04,12,13,15,10.60
2014,04,12,13,16,10.60
2014,04,12,13,17,10.60
2014,04,12,13,18,10.50
2014,04,12,13,19,10.50
2014,04,12,13,20,10.50
2014,04,12,13,21,10.50
2014,04,12,13,22,10.50
2014,04,12,13,23,10.50
2014,04,12,13,24,10.40
2014,04,12,13,25,10.50
2014,04,12,13,26,10.60
2014,04,12,13,27,10.60
2014,04,12,13,28,10.60
2014,04,12,13,29,10.60
2014,04,12,13,30,10.70
2014,04,12,13,31,10.70
2014,04,12,13,32,10.70
2014,04,12,13,33,10.80
2014,04,12,13,34,10.90
2014,04,12,13,35,11.00
2014,04,12,13,36,11.20
2014,04,12,13,37,11.20
2014,04,12,13,38,11.30
2014,04,12,13,39,11.30
2014,04,12,13,40,11.30
2014,04,12,13,41,11.30
2014,04,12,13,42,11.30
2014,04,12,13,43,11.20
2014,04,12,13,44,11.10
2014,04,12,13,45,11.10
2014,04,12,13,46,11.10
2014,04,12,13,47,11.10
2014,04,12,13,48,11.10
2014,04,12,13,49,11.10
2014,04,12,13,50,11.20
2014,04,12,13,51,11.20
2014,04,12,13,52,11.20
2014,04,12,13,53,11.20
2014,04,12,13,54,11.20
2014,04,12,13,55,11.30
2014,04,12,13,56,11.40
2014,04,12,13,57,11.40
2014,04,12,13,58,11.50
2014,04,12,13,59,11.50
2014,04,12,14,00,11.50
2014,04,12,14,01,11.50
2014,04,12,14,02,11.50
2014,04,12,14,03,11.40
2014,04,12,14,04,11.40
2014,04,12,14,05,11.40
2014,04,12,14,06,11.50
2014,04,12,14,07,11.50
2014,04,12,14,08,11.60
2014,04,12,14,09,11.70
2014,04,12,14,10,11.80
2014,04,12,14,11,11.80
2014,04,12,14,12,11.80
2014,04,12,14,13,11.80
2014,04,12,14,14,11.80
2014,04,12,14,15,11.80
2014,04,12,14,16,11.80
2014,04,12,14,17,11.80
2014,04,12,14,18,11.70
2014,04,12,14,19,11.70
2014,04,12,14,20,11.70
2014,04,12,14,21,11.70
2014,04,12,14,22,11.70
2014,04,12,14,23,11.80
2014,04,12,14,24,11.80
2014,04,12,14,25,11.90
2014,04,12,14,26,12.00
2014,04,12,14,27,12.00
2014,04,12,14,28,12.00
2014,04,12,14,29,12.10
2014,04,12,14,30,12.20
2014,04,12,14,31,12.30
2014,04,12,14,32,12.30
2014,04,12,14,33,12.30
2014,04,12,14,34,12.40
2014,04,12,14,35,12.40
2014,04,12,14,36,12.40
2014,04,12,14,37,12.30
2014,04,12,14,38,12.30
2014,04,12,14,39,12.30
2014,04,12,14,40,12.30
2014,04,12,14,41,12.30
2014,04,12,14,42,12.30
2014,04,12,14,43,12.30
2014,04,12,14,44,12.40
2014,04,12,14,45,12.50
2014,04,12,14,46,12.60
2014,04,12,14,47,12.80
2014,04,12,14,48,12.90
2014,04,12,14,49,13.00
2014,04,12,14,50,13.00
2014,04,12,14,51,13.00
2014,04,12,14,52,12.90
2014,04,12,14,53,12.90
2014,04,12,14,54,12.90
2014,04,12,14,55,12.90
2014,04,12,14,56,13.00
2014,04,12,14,57,13.10
2014,04,12,14,58,13.00
2014,04,12,14,59,12.90
2014,04,12,15,00,12.90
2014,04,12,15,01,12.80
2014,04,12,15,02,12.70
2014,04,12,15,03,12.70
2014,04,12,15,04,12.70
2014,04,12,15,05,12.70
2014,04,12,15,06,12.70
2014,04,12,15,07,12.70
2014,04,12,15,08,12.70
2014,04,12,15,09,12.80
2014,04,12,15,10,12.80
2014,04,12,15,11,12.80
2014,04,12,15,12,12.80
2014,04,12,15,13,12.90
2014,04,12,15,14,13.00
2014,04,12,15,15,13.10
2014,04,12,15,16,13.20
2014,04,12,15,17,13.30
2014,04,12,15,18,13.40
2014,04,12,15,19,13.50
2014,04,12,15,20,13.60
2014,04,12,15,21,13.60
2014,04,12,15,22,13.70
2014,04,12,15,23,13.80
2014,04,12,15,24,14.00
2014,04,12,15,25,14.10
2014,04,12,15,26,14.10
2014,04,12,15,27,14.10
2014,04,12,15,28,14.00
2014,04,12,15,29,14.00
2014,04,12,15,30,14.00
2014,04,12,15,31,14.00
2014,04,12,15,32,14.00
2014,04,12,15,33,14.00
2014,04,12,15,34,14.00
2014,04,12,15,35,14.10
2014,04,12,15,36,14.10
2014,04,12,15,37,14.20
2014,04,12,15,38,14.30
2014,04,12,15,39,14.30
2014,04,12,15,40,14.40
2014,04,12,15,41,14.30
2014,04,12,15,42,14.20
2014,04,12,15,43,14.20
2014,04,12,15,44,14.30
2014,04,12,15,45,14.40
2014,04,12,15,46,14.50
2014,04,12,15,47,14.60
2014,04,12,15,48,14.70
2014,04,12,15,49,14.60
2014,04,12,15,50,14.50
2014,04,12,15,51,14.50
2014,04,12,15,52,14.40
2014,04,12,15,53,14.40
2014,04,12,15,54,14.40
2014,04,12,15,55,14.40
2014,04,12,15,56,14.40
2014,04,12,15,57,14.30
2014,04,12,15,58,14.30
2014,04,12,15,59,14.20
2014,04,12,16,00,14.20
2014,04,12,16,01,14.20
2014,04,12,16,02,14.20
2014,04,12,16,03,14.20
2014,04,12,16,04,14.20
2014,04,12,16,05,14.30
2014,04,12,16,06,14.30
2014,04,12,16,07,14.30
2014,04,12,16,08,14.30
2014,04,12,16,09,14.30
2014,04,12,16,10,14.40
2014,04,12,16,11,14.40
2014,04,12,16,12,14.50
2014,04,12,16,13,14.50
2014,04,12,16,14,14.50
2014,04,12,16,15,14.50
2014,04,12,16,16,14.50
2014,04,12,16,17,14.50
2014,04,12,16,18,14.60
2014,04,12,16,19,14.70
2014,04,12,16,20,14.80
2014,04,12,16,21,14.80
2014,04,12,16,22,14.90
2014,04,12,16,23,15.00
2014,04,12,16,24,15.10
2014,04,12,16,25,15.20
2014,04,12,16,26,15.20
2014,04,12,16,27,15.30
2014,04,12,16,28,15.40
2014,04,12,16,29,15.30
2014,04,12,16,30,15.30
2014,04,12,16,31,15.30
2014,04,12,16,32,15.30
2014,04,12,16,33,15.20
2014,04,12,16,34,15.20
2014,04,12,16,35,15.10
2014,04,12,16,36,15.20
2014,04,12,16,37,15.20
2014,04,12,16,38,15.20
2014,04,12,16,39,15.20
2014,04,12,16,40,15.20
2014,04,12,16,41,15.20
2014,04,12,16,42,15.20
2014,04,12,16,43,15.20
2014,04,12,16,44,15.20
2014,04,12,16,45,15.20
2014,04,12,16,46,15.10
2014,04,12,16,47,15.10
2014,04,12,16,48,15.10
2014,04,12,16,49,15.10
2014,04,12,16,50,15.10
2014,04,12,16,51,15.10
2014,04,12,16,52,15.20
2014,04,12,16,53,15.40
2014,04,12,16,54,15.50
2014,04,12,16,55,15.60
2014,04,12,16,56,15.80
2014,04,12,16,57,15.80
2014,04,12,16,58,15.80
2014,04,12,16,59,15.80
2014,04,12,17,00,15.70
2014,04,12,17,01,15.70
2014,04,12,17,02,15.60
2014,04,12,17,03,15.50
2014,04,12,17,04,15.50
2014,04,12,17,05,15.30
2014,04,12,17,06,15.20
2014,04,12,17,07,15.10
2014,04,12,17,08,15.00
2014,04,12,17,09,14.90
2014,04,12,17,10,14.80
2014,04,12,17,11,14.80
2014,04,12,17,12,14.80
2014,04,12,17,13,14.80
2014,04,12,17,14,14.80
2014,04,12,17,15,14.80
2014,04,12,17,16,14.70
2014,04,12,17,17,14.80
2014,04,12,17,18,14.80
2014,04,12,17,19,14.80
2014,04,12,17,20,14.80
2014,04,12,17,21,14.80
2014,04,12,17,22,14.80
2014,04,12,17,23,14.80
2014,04,12,17,24,14.90
2014,04,12,17,25,14.90
2014,04,12,17,26,15.00
2014,04,12,17,27,15.10
2014,04,12,17,28,15.10
2014,04,12,17,29,15.10
2014,04,12,17,30,15.10
2014,04,12,17,31,15.10
2014,04,12,17,32,15.10
2014,04,12,17,33,15.10
2014,04,12,17,34,15.10
2014,04,12,17,35,15.10
2014,04,12,17,36,15.20
2014,04,12,17,37,15.20
2014,04,12,17,38,15.20
2014,04,12,17,39,15.20
2014,04,12,17,40,15.20
2014,04,12,17,41,15.10
2014,04,12,17,42,15.10
2014,04,12,17,43,15.10
2014,04,12,17,44,15.10
2014,04,12,17,45,15.20
2014,04,12,17,46,15.30
2014,04,12,17,47,15.30
2014,04,12,17,48,15.40
2014,04,12,17,49,15.40
2014,04,12,17,50,15.40
2014,04,12,17,51,15.40